Location: Newark
(48.3453°N, 0.5589°E)
Time: 17:24:53
(UTC+00:00)

A-11 Canister half - Pass Details

Date: 14 December 2019
Orbit: 1517 x 1683 km, 47.2° (Epoch: 27 January)

Event Time Altitude Azimuth Distance (km) Brightness Sun altitude
Rises 12:36:18 0° 252° (WSW) 4,744 12.0 17.8°
Reaches altitude 10° 12:39:20 10° 251° (WSW) 3,782 11.6 17.7°
Maximum altitude 12:48:58 79° 167° (SSE) 1,652 9.7 17.3°
Drops below altitude 10° 12:59:00 10° 83° (E) 3,914 11.0 16.9°
Sets 13:02:11 0° 82° (E) 4,917 11.4 16.7°
